Olivia, MN

11:39 PM CDT on August 21, 2017 (GMT -0500)
Olivia Regional

Weather History for KOVL - April, 2014

Change the Weather History Date:

Monday, April 14, 2014

  Actual Average (KRWF) Record (KRWF)
Temperature  
Mean Temperature 30 °F -  
Max Temperature 35 °F 56 °F 91 °F (2003)
Min Temperature 24 °F 36 °F 20 °F (1962)
Degree Days  
Heating Degree Days 34    
Moisture  
Dew Point 15 °F    
Average Humidity 53    
Maximum Humidity 69    
Minimum Humidity 35    
Precipitation  
Precipitation 0.00 in - - ()
Sea Level Pressure  
Sea Level Pressure 30.09 in    
Wind  
Wind Speed 20 mph (NNW)    
Max Wind Speed 26 mph    
Max Gust Speed 36 mph    
Visibility 10 miles    
Events      
Averages and records for this station are not official NWS values.
T = Trace of Precipitation, MM = Missing Value Source: NWS Daily Summary

Daily Weather History Graph

Daily Weather History Graph

Search for Another Location

Airport or City:

Trip Planner

Search our weather history database for the weather conditions in past years. The results will help you decide how hot, cold, wet, or windy it might be!

Date:

Astronomy

Apr. 14, 2014 Rise Set
Actual Time 6:37 AM CDT 8:04 PM CDT
Civil Twilight 6:07 AM CDT 8:34 PM CDT
Nautical Twilight 5:30 AM CDT 9:11 PM CDT
Astronomical Twilight 4:51 AM CDT 9:51 PM CDT
Moon 7:43 PM CDT (4/14) 6:11 AM CDT (4/14)
Length of Visible Light 14h 27m
Length of Day
13h 26m
Full, 100% of the Moon is Illuminated
Apr 14
Full
Apr 15
Full
Apr 22
Last Quarter
Apr 29
New
May 6
First Quarter

Hourly Weather History & Observations

Time (CDT) Temp. Windchill Dew Point Humidity Pressure Visibility Wind Dir Wind Speed Gust Speed Precip Events Conditions
12:13 AM 32.0 °F 19.5 °F 21.2 °F 64% 30.01 in 10.0 mi NNW 21.9 mph 32.2 mph N/A   Clear
12:33 AM 32.0 °F 18.9 °F 21.2 °F 64% 30.01 in 10.0 mi NNW 24.2 mph 31.1 mph N/A   Clear
12:53 AM 32.0 °F 18.9 °F 19.4 °F 60% 30.01 in 10.0 mi North 24.2 mph 35.7 mph N/A   Clear
1:13 AM 32.0 °F 19.8 °F 21.2 °F 64% 30.01 in 10.0 mi NNW 20.7 mph 28.8 mph N/A   Clear
1:33 AM 30.2 °F 15.9 °F 19.4 °F 64% 30.01 in 10.0 mi NNW 26.5 mph 31.1 mph N/A   Clear
1:53 AM 30.2 °F 16.8 °F 21.2 °F 69% 30.01 in 10.0 mi NNW 23.0 mph 29.9 mph N/A   Clear
2:13 AM 30.2 °F 16.8 °F 21.2 °F 69% 30.01 in 10.0 mi NNW 23.0 mph 31.1 mph N/A   Clear
2:33 AM 30.2 °F 17.4 °F 21.2 °F 69% 30.01 in 10.0 mi NNW 20.7 mph 28.8 mph N/A   Clear
2:53 AM 30.2 °F 17.4 °F 21.2 °F 69% 30.01 in 10.0 mi NNW 20.7 mph 26.5 mph N/A   Clear
3:13 AM 30.2 °F 16.5 °F 19.4 °F 64% 30.01 in 10.0 mi NNW 24.2 mph - N/A   Clear
3:33 AM 28.4 °F 14.4 °F 19.4 °F 69% 30.01 in 10.0 mi NNW 23.0 mph 26.5 mph N/A   Clear
3:53 AM 28.4 °F 15.1 °F 19.4 °F 69% 30.01 in 10.0 mi NNW 20.7 mph 27.6 mph N/A   Clear
4:13 AM 28.4 °F 14.7 °F 19.4 °F 69% 30.01 in 10.0 mi NNW 21.9 mph 25.3 mph N/A   Clear
4:33 AM 28.4 °F 14.7 °F 19.4 °F 69% 30.02 in 10.0 mi NNW 21.9 mph 25.3 mph N/A   Clear
4:53 AM 28.4 °F 16.6 °F 19.4 °F 69% 30.02 in 10.0 mi NNW 16.1 mph - N/A   Clear
5:13 AM 26.6 °F 13.8 °F 17.6 °F 69% 30.03 in 10.0 mi NNW 17.3 mph - N/A   Clear
5:33 AM 26.6 °F 14.3 °F 17.6 °F 69% 30.05 in 10.0 mi NNW 16.1 mph 23.0 mph N/A   Clear
5:53 AM 26.6 °F 12.0 °F 17.6 °F 69% 30.05 in 10.0 mi NNW 23.0 mph - N/A   Clear
6:13 AM 26.6 °F 13.4 °F 17.6 °F 69% 30.06 in 10.0 mi NNW 18.4 mph 26.5 mph N/A   Clear
6:33 AM 26.6 °F 13.4 °F 15.8 °F 64% 30.06 in 10.0 mi NNW 18.4 mph 26.5 mph N/A   Clear
7:13 AM 26.6 °F 13.1 °F 15.8 °F 64% 30.09 in 10.0 mi NNW 19.6 mph 25.3 mph N/A   Clear
7:33 AM 26.6 °F 13.4 °F 15.8 °F 64% 30.09 in 10.0 mi NNW 18.4 mph 23.0 mph N/A   Clear
7:53 AM 26.6 °F 13.4 °F 17.6 °F 69% 30.11 in 10.0 mi NNW 18.4 mph - N/A   Clear
8:13 AM 28.4 °F 15.1 °F 17.6 °F 64% 30.11 in 10.0 mi NNW 20.7 mph 26.5 mph N/A   Clear
8:33 AM 28.4 °F 15.4 °F 15.8 °F 59% 30.12 in 10.0 mi NNW 19.6 mph 25.3 mph N/A   Clear
8:53 AM 30.2 °F 18.5 °F 17.6 °F 60% 30.12 in 10.0 mi NNW 17.3 mph 25.3 mph N/A   Clear
9:13 AM 30.2 °F 18.1 °F 15.8 °F 55% 30.12 in 10.0 mi North 18.4 mph 23.0 mph N/A   Clear
9:33 AM 30.2 °F 18.9 °F 14.0 °F 51% 30.12 in 10.0 mi North 16.1 mph 25.3 mph N/A   Clear
9:53 AM 30.2 °F 19.8 °F 12.2 °F 47% 30.13 in 10.0 mi North 13.8 mph 23.0 mph N/A   Clear
10:12 AM 32.0 °F 20.8 °F 12.2 °F 44% 30.12 in 10.0 mi North 17.3 mph 23.0 mph N/A   Clear
10:33 AM 32.0 °F 20.8 °F 12.2 °F 44% 30.13 in 10.0 mi North 17.3 mph 28.8 mph N/A   Clear
10:53 AM 32.0 °F 20.5 °F 12.2 °F 44% 30.13 in 10.0 mi NNW 18.4 mph 26.5 mph N/A   Clear
11:13 AM 33.8 °F 22.8 °F 12.2 °F 41% 30.13 in 10.0 mi North 18.4 mph 26.5 mph N/A   Clear
11:33 AM 33.8 °F 22.8 °F 12.2 °F 41% 30.13 in 10.0 mi NNW 18.4 mph 27.6 mph N/A   Clear
11:53 AM 33.8 °F 21.6 °F 10.4 °F 38% 30.13 in 10.0 mi NNW 23.0 mph 27.6 mph N/A   Clear
12:13 PM 33.8 °F 23.9 °F 10.4 °F 38% 30.13 in 10.0 mi North 15.0 mph 26.5 mph N/A   Scattered Clouds
12:33 PM 33.8 °F 23.5 °F 8.6 °F 35% 30.12 in 10.0 mi North 16.1 mph 25.3 mph N/A   Clear
12:53 PM 33.8 °F 21.9 °F 8.6 °F 35% 30.12 in 10.0 mi NNW 21.9 mph 28.8 mph N/A   Scattered Clouds
1:12 PM 35.6 °F 25.2 °F 10.4 °F 35% 30.12 in 10.0 mi NNW 18.4 mph 27.6 mph N/A   Scattered Clouds
1:33 PM 33.8 °F 22.5 °F 8.6 °F 35% 30.12 in 10.0 mi North 19.6 mph 28.8 mph N/A   Mostly Cloudy
1:53 PM 33.8 °F 21.9 °F 8.6 °F 35% 30.12 in 10.0 mi NNW 21.9 mph 25.3 mph N/A   Mostly Cloudy
2:12 PM 35.6 °F 25.2 °F 10.4 °F 35% 30.11 in 10.0 mi NNW 18.4 mph 31.1 mph N/A   Mostly Cloudy
2:33 PM 33.8 °F 21.9 °F 12.2 °F 41% 30.12 in 10.0 mi NNW 21.9 mph 29.9 mph N/A   Mostly Cloudy
2:53 PM 35.6 °F 24.2 °F 12.2 °F 38% 30.11 in 10.0 mi NNW 21.9 mph 27.6 mph N/A   Overcast
3:13 PM 35.6 °F 23.7 °F 12.2 °F 38% 30.11 in 10.0 mi NNW 24.2 mph 28.8 mph N/A   Mostly Cloudy
3:33 PM 33.8 °F 22.5 °F 12.2 °F 41% 30.11 in 10.0 mi NNW 19.6 mph 29.9 mph N/A   Mostly Cloudy
3:53 PM 33.8 °F 21.9 °F 12.2 °F 41% 30.11 in 10.0 mi NNW 21.9 mph 28.8 mph N/A   Mostly Cloudy
4:13 PM 35.6 °F 24.0 °F 14.0 °F 41% 30.10 in 10.0 mi NNW 23.0 mph 32.2 mph N/A   Mostly Cloudy
4:33 PM 33.8 °F 22.2 °F 12.2 °F 41% 30.10 in 10.0 mi NNW 20.7 mph 27.6 mph N/A   Mostly Cloudy
4:53 PM 35.6 °F 24.8 °F 14.0 °F 41% 30.09 in 10.0 mi NNW 19.6 mph 28.8 mph N/A   Mostly Cloudy
5:13 PM 33.8 °F 22.5 °F 12.2 °F 41% 30.10 in 10.0 mi NNW 19.6 mph 28.8 mph N/A   Scattered Clouds
5:33 PM 33.8 °F 21.6 °F 12.2 °F 41% 30.09 in 10.0 mi NNW 23.0 mph 26.5 mph N/A   Mostly Cloudy
5:53 PM 35.6 °F 24.8 °F 12.2 °F 38% 30.09 in 10.0 mi NNW 19.6 mph 24.2 mph N/A   Overcast
6:13 PM 33.8 °F 23.5 °F 14.0 °F 44% 30.10 in 10.0 mi NW 16.1 mph 24.2 mph N/A   Mostly Cloudy
6:33 PM 33.8 °F 23.5 °F 14.0 °F 44% 30.11 in 10.0 mi NNW 16.1 mph 24.2 mph N/A   Overcast
6:53 PM 33.8 °F 22.8 °F 15.8 °F 48% 30.11 in 10.0 mi NW 18.4 mph 27.6 mph N/A   Overcast
7:13 PM 32.0 °F 22.1 °F 15.8 °F 51% 30.11 in 10.0 mi NNW 13.8 mph 20.7 mph N/A   Scattered Clouds
7:33 PM 32.0 °F 21.6 °F 14.0 °F 48% 30.11 in 10.0 mi NNW 15.0 mph 23.0 mph N/A   Scattered Clouds
7:53 PM 30.2 °F 19.3 °F 14.0 °F 51% 30.11 in 10.0 mi NNW 15.0 mph - N/A   Scattered Clouds
8:13 PM 30.2 °F 20.2 °F 14.0 °F 51% 30.12 in 10.0 mi NNW 12.7 mph 18.4 mph N/A   Scattered Clouds
8:33 PM 30.2 °F 21.3 °F 15.8 °F 55% 30.13 in 10.0 mi NNW 10.4 mph - N/A   Scattered Clouds
8:53 PM 30.2 °F 19.8 °F 14.0 °F 51% 30.13 in 10.0 mi NNW 13.8 mph - N/A   Scattered Clouds
9:13 PM 30.2 °F 19.8 °F 15.8 °F 55% 30.13 in 10.0 mi NNW 13.8 mph - N/A   Scattered Clouds
9:33 PM 30.2 °F 19.3 °F 17.6 °F 60% 30.14 in 10.0 mi NNW 15.0 mph - N/A   Clear
9:53 PM 28.4 °F 18.5 °F 15.8 °F 59% 30.15 in 10.0 mi NNW 11.5 mph - N/A   Scattered Clouds
10:13 PM 28.4 °F 19.1 °F 14.0 °F 55% 30.15 in 10.0 mi NNW 10.4 mph - N/A   Scattered Clouds
10:33 PM 28.4 °F 19.1 °F 15.8 °F 59% 30.15 in 10.0 mi NNW 10.4 mph - N/A   Scattered Clouds
10:53 PM 26.6 °F 18.2 °F 14.0 °F 59% 30.16 in 10.0 mi NNW 8.1 mph - N/A   Clear
11:13 PM 26.6 °F 17.5 °F 14.0 °F 59% 30.16 in 10.0 mi NNW 9.2 mph - N/A   Clear
11:33 PM 26.6 °F 15.2 °F 14.0 °F 59% 30.16 in 10.0 mi NNW 13.8 mph 18.4 mph N/A   Clear
11:53 PM 24.8 °F 14.6 °F 12.2 °F 59% 30.16 in 10.0 mi NNW 10.4 mph - N/A   Clear